Radiation Dose measured at exhaust stack monitor of Miscellaneous Solid Waste Incinerator Building/Incinerator raregas monitor
Date,Time,Incinerator Gas Monitor(cps),Wind Direction,Wind Velocity(m/s)
2022/12/10,00:00,1.4,southwest,6.9
2022/12/10,00:10,1.4,southwest,6.6
2022/12/10,00:20,1.5,southwest,6.5
2022/12/10,00:30,1.4,southwest,5.5
2022/12/10,00:40,1.5,southwest,5.4
2022/12/10,00:50,1.4,west-southwest,4.6
2022/12/10,01:00,1.6,southwest,4.6
2022/12/10,01:10,1.5,southwest,5.3
2022/12/10,01:20,1.5,west-southwest,5.1
2022/12/10,01:30,1.4,west-southwest,5.7
2022/12/10,01:40,1.4,west,6.8
2022/12/10,01:50,1.6,west,7.9
2022/12/10,02:00,1.4,west,7.7
2022/12/10,02:10,1.5,west,7.6
2022/12/10,02:20,1.5,west,5.6
2022/12/10,02:30,1.5,west,5.5
2022/12/10,02:40,1.4,west,6.3
2022/12/10,02:50,1.5,west,6.0
2022/12/10,03:00,1.5,west,7.0
2022/12/10,03:10,1.5,west,7.6
2022/12/10,03:20,1.5,west,7.9
2022/12/10,03:30,1.5,west,10.9
2022/12/10,03:40,1.4,west-northwest,7.9
2022/12/10,03:50,1.5,west-northwest,8.3
2022/12/10,04:00,1.4,west-northwest,8.4
2022/12/10,04:10,1.4,west-northwest,7.7
2022/12/10,04:20,1.5,northwest,5.3
2022/12/10,04:30,1.5,northwest,4.7
2022/12/10,04:40,1.6,north-northwest,5.4
2022/12/10,04:50,1.5,northwest,5.9
2022/12/10,05:00,1.5,west-northwest,6.8
2022/12/10,05:10,1.5,west-northwest,6.9
2022/12/10,05:20,1.4,west-northwest,8.3
2022/12/10,05:30,1.5,west-northwest,8.2
2022/12/10,05:40,1.4,west-northwest,6.9
2022/12/10,05:50,1.4,west,8.7
2022/12/10,06:00,1.6,west,8.4
2022/12/10,06:10,1.4,west,9.2
2022/12/10,06:20,1.5,west,8.7
2022/12/10,06:30,1.5,west,6.6
2022/12/10,06:40,1.4,west-northwest,7.5
2022/12/10,06:50,1.5,west-northwest,7.6
2022/12/10,07:00,1.5,west-northwest,6.4
2022/12/10,07:10,1.6,northwest,4.0
2022/12/10,07:20,1.6,northwest,6.2
2022/12/10,07:30,1.5,north-northwest,5.0
2022/12/10,07:40,1.4,northwest,6.1
2022/12/10,07:50,1.5,north-northwest,5.4
2022/12/10,08:00,1.5,north-northwest,5.6
2022/12/10,08:10,1.4,northwest,6.5
2022/12/10,08:20,1.5,northwest,6.1
2022/12/10,08:30,1.5,northwest,5.3
2022/12/10,08:40,1.5,northwest,4.4
2022/12/10,08:50,1.5,north-northwest,3.7
2022/12/10,09:00,1.5,north-northwest,3.5
2022/12/10,09:10,1.4,north,3.4
2022/12/10,09:20,1.5,north,3.5
2022/12/10,09:30,1.5,north,4.0
2022/12/10,09:40,1.5,north,3.8
2022/12/10,09:50,1.5,north,3.8
2022/12/10,10:00,1.5,north,2.6
2022/12/10,10:10,1.5,northwest,1.4
2022/12/10,10:20,1.5,north-northwest,1.2
2022/12/10,10:30,1.6,north-northeast,2.6
2022/12/10,10:40,1.4,northeast,3.1
2022/12/10,10:50,1.5,northeast,2.3
2022/12/10,11:00,1.5,east-northeast,1.4
2022/12/10,11:10,1.5,north-northeast,1.7
2022/12/10,11:20,1.4,north-northeast,4.0
2022/12/10,11:30,1.4,north-northeast,4.1
2022/12/10,11:40,1.5,north-northeast,3.6
2022/12/10,11:50,1.5,northeast,4.6
2022/12/10,12:00,1.5,northeast,4.2
2022/12/10,12:10,1.5,northeast,4.0
2022/12/10,12:20,1.5,northeast,4.8
2022/12/10,12:30,1.4,northeast,4.5
2022/12/10,12:40,1.5,northeast,3.4
2022/12/10,12:50,1.6,north-northeast,4.2
2022/12/10,13:00,1.4,north-northeast,4.4
2022/12/10,13:10,1.5,north-northeast,4.2
2022/12/10,13:20,1.5,north-northeast,3.9
2022/12/10,13:30,1.4,north-northeast,4.4
2022/12/10,13:40,1.4,north-northeast,4.5
2022/12/10,13:50,1.5,north-northeast,3.9
2022/12/10,14:00,1.5,north-northeast,4.6
2022/12/10,14:10,1.5,north-northeast,3.5
2022/12/10,14:20,1.4,northeast,2.9
2022/12/10,14:30,1.5,north-northeast,2.8
2022/12/10,14:40,1.5,northeast,3.2
2022/12/10,14:50,1.5,northeast,3.2
2022/12/10,15:00,1.5,northeast,3.4
2022/12/10,15:10,1.4,northeast,3.7
2022/12/10,15:20,1.5,north-northeast,3.1
2022/12/10,15:30,1.4,north,3.4
2022/12/10,15:40,1.5,north-northeast,3.6
2022/12/10,15:50,1.5,north,4.0
2022/12/10,16:00,1.5,north-northwest,4.3
2022/12/10,16:10,1.5,north-northwest,4.9
2022/12/10,16:20,1.5,north-northwest,5.3
2022/12/10,16:30,1.5,north-northwest,5.2
2022/12/10,16:40,1.5,north-northwest,5.5
2022/12/10,16:50,1.5,north-northwest,5.6
2022/12/10,17:00,1.5,north-northwest,6.1
2022/12/10,17:10,1.5,north-northwest,6.7
2022/12/10,17:20,1.5,north-northwest,5.1
2022/12/10,17:30,1.5,northwest,4.1
2022/12/10,17:40,1.4,northwest,4.8
2022/12/10,17:50,1.5,northwest,5.1
2022/12/10,18:00,1.4,northwest,5.1
2022/12/10,18:10,1.5,northwest,6.3
2022/12/10,18:20,1.5,northwest,5.6
2022/12/10,18:30,1.5,north-northwest,6.3
2022/12/10,18:40,1.5,northwest,6.0
2022/12/10,18:50,1.4,northwest,6.8
2022/12/10,19:00,1.5,northwest,6.9
2022/12/10,19:10,1.5,northwest,6.0
2022/12/10,19:20,1.5,northwest,7.0
2022/12/10,19:30,1.4,northwest,6.7
2022/12/10,19:40,1.5,northwest,5.7
2022/12/10,19:50,1.5,northwest,5.6
2022/12/10,20:00,1.5,northwest,6.4
2022/12/10,20:10,1.4,northwest,6.8
2022/12/10,20:20,1.5,northwest,6.5
2022/12/10,20:30,1.5,northwest,4.7
2022/12/10,20:40,1.5,northwest,6.1
2022/12/10,20:50,1.6,northwest,5.3
2022/12/10,21:00,1.4,northwest,5.4
2022/12/10,21:10,1.5,northwest,6.5
2022/12/10,21:20,1.5,northwest,4.4
2022/12/10,21:30,1.4,northwest,4.9
2022/12/10,21:40,1.5,northwest,4.3
2022/12/10,21:50,1.5,northwest,4.1
2022/12/10,22:00,1.4,north-northwest,4.2
2022/12/10,22:10,1.5,north-northwest,3.9
2022/12/10,22:20,1.4,north-northwest,4.8
2022/12/10,22:30,1.5,north-northwest,5.8
2022/12/10,22:40,1.5,northwest,4.8
2022/12/10,22:50,1.4,northwest,6.4
2022/12/10,23:00,1.5,northwest,6.5
2022/12/10,23:10,1.5,northwest,5.5
2022/12/10,23:20,1.5,northwest,5.5
2022/12/10,23:30,1.5,northwest,4.5
2022/12/10,23:40,1.5,north-northwest,4.3
2022/12/10,23:50,1.4,northwest,6.3
